Theta_e
314 314 314 314 313 313 313 313 313 313 313 313 313 312 312 314 315 317 314 314 316 319 323 325 323 324 323 319 320 322 327 326 326 326 323 318 319 315 313 313 311 309 307 309 312
315 315 315 314 314 314 314 314 313 313 313 313 313 313 312 314 315 317 313 314 317 321 323 324 322 321 317 318 315 320 323 325 321 321 321 320 318 315 315 313 310 310 307 309 310
316 315 315 315 315 315 314 314 314 314 313 313 313 313 312 314 318 316 314 314 318 321 322 321 321 321 321 316 315 319 321 320 320 319 318 320 317 314 313 313 310 309 307 307 305
317 316 316 316 315 315 315 314 314 314 314 313 313 313 314 317 320 315 313 314 318 320 320 320 316 320 318 317 315 317 316 318 318 316 316 316 315 315 312 313 312 308 307 307 304
317 317 317 316 316 316 315 314 314 314 314 313 314 312 317 318 318 315 314 317 318 319 319 318 315 316 317 315 315 316 316 315 315 315 315 314 315 314 313 312 309 308 307 306 305
319 318 318 317 317 316 315 315 314 314 314 314 314 312 317 319 315 315 315 317 318 319 318 318 317 316 316 314 315 314 314 315 314 315 314 314 313 314 313 308 306 308 306 305 305
321 320 319 319 317 316 315 315 314 314 314 314 314 313 317 317 315 315 316 316 317 318 318 317 316 315 315 315 314 314 315 314 313 313 314 313 309 312 311 307 306 306 304 304 305
322 321 320 320 318 317 316 315 314 314 314 314 313 313 314 315 314 315 315 316 317 316 317 316 315 314 315 314 315 315 314 316 315 313 313 310 308 312 308 307 307 305 303 304 304
322 322 321 320 319 317 316 315 314 314 314 313 312 313 313 314 314 315 315 316 316 316 316 315 315 315 314 315 313 310 314 313 315 312 313 312 310 311 308 307 307 304 303 303 303
321 322 322 321 319 317 316 315 315 314 313 312 315 312 312 313 314 314 314 315 315 315 314 315 312 312 309 310 315 313 312 311 312 314 312 312 310 309 309 307 307 305 303 302 303
318 321 322 320 319 317 316 316 312 311 315 312 312 312 312 313 313 313 314 314 314 313 314 316 312 313 313 313 312 313 313 312 312 313 312 309 308 308 307 307 306 304 303 303 302
317 320 320 318 318 316 316 317 316 316 316 315 314 313 313 313 312 312 313 313 314 314 313 312 315 313 313 314 314 314 314 313 310 312 311 310 310 310 310 308 307 307 303 303 303
317 318 319 316 317 316 316 316 318 318 314 316 313 312 312 312 312 311 311 312 313 314 314 313 316 313 314 313 313 312 313 311 311 310 310 310 312 310 312 311 310 307 304 304 303
316 318 318 315 314 316 318 315 316 317 310 314 314 313 312 312 313 312 313 313 314 313 311 314 313 314 314 314 311 312 312 312 312 310 311 310 309 312 312 311 311 309 305 305 304
317 318 317 311 314 318 318 318 318 315 312 314 313 312 311 312 312 312 312 312 314 314 312 313 313 313 314 314 311 311 311 310 312 313 313 315 309 311 310 313 312 310 307 305 305
317 317 317 306 307 318 319 318 317 313 313 315 312 312 312 313 313 312 312 312 313 314 312 312 310 311 312 311 310 310 312 313 313 314 318 316 311 310 312 314 313 311 310 307 306
317 316 313 308 315 318 319 314 313 314 315 315 313 312 311 311 313 312 312 312 311 312 312 313 312 309 309 312 311 311 313 318 322 318 318 314 312 311 312 313 312 312 309 307 306
316 312 305 305 314 318 317 313 314 313 315 314 313 311 312 312 312 312 312 311 310 312 311 313 315 311 308 310 314 311 312 313 319 315 314 313 313 317 312 313 311 311 311 308 307
310 304 305 305 311 315 310 314 314 315 315 315 313 313 312 313 313 313 311 311 311 310 313 314 315 307 307 306 309 313 312 311 314 315 316 316 315 314 312 312 312 311 311 309 307
305 307 309 308 312 315 312 316 314 313 314 313 314 312 312 313 313 312 310 311 314 310 310 313 314 309 308 307 308 311 310 316 315 319 319 315 315 315 313 311 311 311 310 308 308
303 310 314 309 314 311 317 314 315 314 315 314 313 313 312 313 312 312 312 313 313 312 311 312 313 311 309 308 309 308 310 310 312 313 316 317 317 311 311 310 310 309 309 309 308
306 314 316 311 318 313 316 313 315 314 314 315 314 314 313 312 312 312 313 313 312 310 312 312 309 310 310 308 307 308 310 309 316 316 310 311 315 312 308 309 308 312 312 309 309
309 313 317 318 320 315 315 315 315 314 313 314 314 315 313 312 314 313 312 312 311 311 311 310 311 313 314 312 309 308 307 309 311 311 312 314 316 312 307 307 308 312 310 309 308
310 317 315 312 312 314 316 314 316 314 314 314 314 314 315 314 312 312 313 312 312 312 313 311 310 312 315 317 310 309 309 309 310 310 310 313 314 314 312 308 311 309 309 309 309
306 314 317 322 321 318 312 314 316 315 313 313 314 314 314 315 315 316 313 312 311 312 310 310 312 313 314 314 310 311 311 308 310 309 313 314 313 313 312 310 309 309 310 310 309
306 311 311 314 318 320 317 314 315 315 313 314 314 314 312 314 314 315 312 310 311 310 309 309 313 314 316 314 312 314 312 309 308 309 309 311 311 311 310 309 308 307 307 309 308
302 305 311 313 318 319 320 316 314 314 313 314 313 313 313 313 312 313 311 310 310 310 308 310 311 312 313 313 313 315 314 313 311 308 310 311 313 312 312 311 310 310 309 309 308
Wind_Speed
5 4 4 4 4 4 4 4 5 5 5 5 6 8 8 6 5 3 2 3 3 4 8 11 8 5 1 2 3 3 4 2 1 5 4 4 3 2 2 5 3 2 7 4 31
4 4 4 5 5 5 5 5 5 5 5 5 6 7 8 6 4 2 5 3 2 4 7 10 7 11 3 2 3 4 3 3 3 2 4 4 3 7 4 3 1 2 5 18 37
5 4 5 5 5 6 6 6 6 5 5 6 6 7 7 5 2 2 6 3 1 4 8 12 11 1 2 3 2 2 3 3 1 0 2 4 2 5 7 3 7 8 8 20 26
5 5 5 6 6 7 7 6 6 6 6 6 7 8 5 1 1 2 4 2 1 4 9 9 5 2 3 2 2 4 1 3 2 0 1 3 1 3 6 7 7 10 23 22 20
7 6 6 6 7 8 8 7 7 6 5 5 6 7 2 3 3 4 2 2 3 5 8 3 6 3 2 1 2 2 2 2 2 2 1 0 3 5 6 6 4 18 18 16 21
8 8 8 8 8 8 9 9 8 6 5 4 5 5 1 1 2 3 1 1 2 5 6 5 1 3 1 2 4 2 4 2 3 2 2 2 1 2 5 7 8 13 12 12 19
9 9 10 10 10 9 8 9 9 6 4 3 3 2 1 6 2 1 1 1 3 2 1 4 3 4 1 1 0 2 2 2 3 2 2 2 4 7 3 6 10 10 9 9 19
11 10 12 12 11 10 10 10 8 5 3 3 2 0 3 3 4 3 2 0 1 2 1 2 4 3 2 1 4 3 4 3 3 4 1 3 7 4 8 10 10 10 9 10 15
13 12 12 13 13 12 11 10 5 3 2 2 1 1 5 3 3 3 1 2 2 1 2 2 2 2 5 3 4 6 1 2 4 7 2 2 7 5 6 9 9 9 10 10 10
13 12 13 13 14 13 11 5 2 1 2 1 1 3 2 4 4 3 1 1 1 2 4 4 5 3 4 4 2 2 1 3 2 1 3 3 12 9 7 8 11 10 9 9 10
14 13 13 13 13 14 10 1 2 3 2 5 5 3 3 4 3 3 2 1 2 5 2 3 5 2 3 3 4 1 1 2 3 2 2 5 8 14 8 7 9 9 10 10 12
13 13 13 13 11 12 11 2 2 1 3 12 5 2 4 6 2 3 2 2 2 1 1 5 2 5 4 3 1 0 2 4 4 0 2 5 10 6 1 5 8 13 10 11 6
14 14 13 13 10 10 8 8 1 1 1 5 6 4 4 6 4 6 6 3 3 1 1 5 3 2 1 2 1 1 2 1 3 6 2 5 7 6 2 1 3 4 7 6 10
15 14 13 10 6 3 5 6 8 3 4 5 5 5 5 5 2 1 3 3 1 6 6 2 1 2 1 1 2 2 2 1 3 4 2 3 2 4 5 7 4 5 6 8 9
16 14 13 9 4 3 3 5 5 1 2 3 3 4 3 6 5 2 1 3 3 3 5 3 3 2 2 1 1 3 1 1 0 2 2 5 4 6 5 5 4 7 7 8 7
16 14 12 10 13 5 1 4 3 5 6 4 5 5 5 2 1 2 2 3 1 2 3 1 1 1 1 1 1 1 2 5 3 2 3 2 4 5 3 4 3 3 5 7 6
15 16 15 11 5 6 5 3 4 4 0 5 5 6 4 5 3 4 4 3 5 4 4 2 1 1 1 1 1 3 4 3 3 4 4 3 2 8 5 5 4 4 7 7 7
15 14 17 23 18 2 6 4 5 5 7 4 5 7 6 6 5 6 5 2 5 2 3 6 3 4 1 1 3 1 4 4 3 3 4 3 3 3 4 1 2 4 4 6 7
12 12 15 27 23 7 4 3 8 7 7 9 5 4 5 5 5 4 8 5 8 11 6 4 2 1 2 1 2 2 1 2 5 3 2 3 5 6 1 3 4 6 5 8 8
9 4 12 19 24 8 3 9 6 6 6 4 9 6 8 8 6 8 8 5 5 10 4 6 3 1 1 1 1 1 1 2 2 3 2 4 5 5 6 8 6 6 7 8 8
7 1 6 23 22 3 9 8 7 6 5 6 7 6 7 8 9 7 6 4 6 5 6 5 3 1 2 4 6 1 0 3 3 4 4 1 6 7 9 8 9 8 7 7 8
7 2 8 35 6 3 9 7 5 4 1 4 5 4 8 9 7 7 9 5 5 8 9 3 5 3 5 2 1 2 5 5 4 4 1 4 6 4 7 8 7 5 6 7 6
4 3 18 15 9 4 3 11 3 5 5 7 8 5 5 8 5 6 6 2 4 5 10 7 2 3 4 3 2 4 5 4 5 3 6 5 6 3 4 5 7 5 7 6 6
2 4 3 1 0 9 13 7 14 6 5 4 5 3 4 4 3 8 4 2 2 3 5 5 4 6 7 5 5 5 5 5 5 4 4 6 5 5 7 9 8 8 7 6 6
3 5 6 11 17 9 7 10 18 9 5 9 4 7 7 5 5 5 3 2 2 3 3 5 6 5 5 3 4 5 5 9 9 5 7 4 9 7 10 10 10 7 6 6 7
5 4 1 3 17 20 10 15 20 20 11 8 7 12 8 8 9 8 8 5 6 3 7 1 3 4 2 2 7 5 8 10 11 4 10 3 14 9 10 6 7 9 8 8 8
15 4 1 6 10 18 23 14 18 11 14 8 11 7 8 12 6 4 6 8 9 11 8 8 6 4 4 1 4 6 16 16 7 7 13 10 19 4 6 6 7 8 8 9 9
Wind_Direction
45 41 36 24 14 1 352 346 341 336 338 338 344 346 343 341 345 328 308 292 300 331 329 329 359 328 260 35 31 85 60 72 335 170 194 198 129 55 89 116 63 48 152 214 169
34 27 21 14 6 357 346 341 336 333 331 330 338 344 343 343 343 337 328 322 332 324 327 355 336 356 25 51 16 76 91 202 213 205 195 164 146 167 137 133 74 31 27 144 160
16 13 7 0 353 347 343 339 334 329 325 326 333 340 341 343 20 279 335 335 354 308 327 318 306 244 59 55 4 122 155 177 241 151 72 174 129 180 134 223 199 196 158 150 163
349 354 353 349 344 341 339 336 331 324 321 324 331 343 346 28 205 340 352 5 4 310 327 338 359 80 81 84 16 86 157 170 197 298 72 166 344 208 185 221 203 186 164 161 171
329 333 334 339 340 335 337 332 324 318 318 323 332 349 40 32 258 350 351 70 356 336 336 328 37 20 100 121 75 101 204 140 173 184 225 271 249 242 243 220 88 137 158 174 181
314 319 324 327 330 333 333 326 319 316 308 312 331 352 83 350 180 0 39 333 6 10 13 39 30 267 68 73 120 175 171 212 207 231 280 234 270 22 295 142 132 153 176 184 188
300 308 314 319 322 326 324 318 314 305 287 294 326 359 83 226 211 280 56 95 48 20 13 18 15 65 91 38 88 106 58 327 228 213 244 141 271 235 184 144 157 180 190 193 206
289 297 305 315 316 319 316 313 308 284 264 280 300 341 236 220 216 206 252 287 81 25 48 3 0 97 59 213 29 67 49 12 296 148 270 85 278 282 160 152 190 196 204 205 212
277 288 296 310 313 315 314 313 293 256 248 272 339 89 280 201 227 213 249 155 266 310 20 347 34 86 25 70 21 16 248 228 315 205 114 170 277 276 159 175 204 210 208 211 222
267 281 288 303 311 311 317 312 275 249 209 193 241 40 285 226 188 199 257 231 35 340 11 49 45 57 30 65 208 242 348 314 288 243 213 238 266 269 262 199 218 215 216 217 219
257 272 281 298 303 313 331 139 42 357 205 189 207 190 154 162 164 209 191 326 26 51 62 6 68 142 227 209 179 181 231 279 255 202 291 239 268 279 245 209 238 228 226 227 225
250 265 279 295 297 304 309 261 187 178 311 232 250 219 173 173 124 255 203 123 95 257 97 24 169 217 233 239 179 77 268 293 292 292 7 317 299 295 350 213 214 231 222 227 230
236 258 278 296 297 292 262 238 95 274 107 288 185 175 186 165 192 221 158 179 191 220 204 158 218 197 214 25 67 89 155 40 249 323 243 331 317 339 318 296 311 247 232 221 219
232 251 276 297 285 263 251 252 239 258 55 260 190 232 142 127 257 197 191 173 253 184 153 182 220 175 223 248 125 319 149 83 312 28 180 36 256 309 323 321 317 301 281 256 229
227 245 271 267 281 224 330 149 193 171 335 191 168 141 134 147 140 260 61 49 178 190 98 256 178 182 225 224 151 218 146 253 52 15 12 350 63 272 347 318 301 311 281 268 238
225 242 263 263 247 195 167 164 168 52 251 188 141 163 123 142 155 102 72 45 88 86 46 133 19 87 201 303 190 114 100 38 56 75 43 299 108 293 257 246 290 270 279 267 255
226 243 245 228 209 219 180 103 71 175 272 186 179 152 142 164 173 150 162 176 161 124 223 1 279 313 100 77 47 82 63 354 359 16 203 308 61 234 259 238 228 242 267 269 262
229 242 247 235 220 206 158 66 197 209 192 133 124 112 166 158 209 179 132 212 234 134 123 161 278 174 358 194 191 166 143 154 192 191 264 316 251 250 226 244 304 262 242 246 252
227 244 256 238 210 240 96 169 206 206 175 140 77 117 223 207 159 143 189 208 210 179 170 140 261 332 68 55 129 178 129 182 106 11 44 275 294 320 239 264 259 265 256 256 255
210 253 251 226 198 187 107 224 222 213 126 122 164 162 173 190 153 171 182 212 217 182 166 206 103 230 337 242 120 138 159 74 8 148 232 291 279 233 229 225 235 252 252 269 267
179 280 266 186 170 102 204 222 224 239 146 151 181 160 186 177 168 185 203 268 187 151 157 139 105 290 25 207 187 111 316 59 118 133 158 232 261 214 198 194 204 236 246 259 279
167 202 181 161 168 197 207 189 218 213 155 178 141 138 171 166 155 190 206 233 169 150 161 170 125 168 205 263 268 213 206 155 127 213 106 144 273 231 211 199 201 217 287 297 289
186 228 174 185 197 221 234 209 236 187 197 183 196 189 174 167 164 189 193 192 186 166 160 183 183 90 358 344 326 224 205 150 117 97 195 138 261 330 244 262 236 234 294 294 294
154 163 210 251 144 183 197 218 213 212 196 172 195 157 147 164 247 178 162 204 119 140 124 102 154 167 187 198 138 197 197 177 138 133 184 226 272 278 241 234 243 269 285 299 289
180 231 184 196 216 216 201 184 203 202 216 175 221 195 168 165 147 157 140 122 18 169 112 142 200 174 229 226 174 197 179 184 201 184 182 234 218 223 237 233 248 247 286 272 280
160 175 273 175 198 207 202 213 201 206 166 208 186 198 183 163 183 184 141 188 189 191 163 171 208 161 242 327 200 232 233 207 220 233 265 274 278 199 240 231 264 258 257 250 256
209 258 183 180 182 198 214 207 212 193 220 196 185 151 184 211 183 200 179 165 164 153 170 153 139 120 239 158 142 285 225 203 195 211 211 223 240 189 246 218 233 244 222 236 242